﻿_id,日時,平均風速(m/s),平均風向,最大瞬間風速(m/s),最大風速時風向,気温(℃),湿度(%),10分間移動積算雨量(mm),1時間移動積算雨量(mm),日雨量(mm),累計雨量(mm),日射(日積算)(MJ/m2),日照(日積算)(min),現地気圧(hPa),海面気圧(hPa)
1,2023-11-20T00:00:00,0.8,西南西,1.4,西,6.4,95.8,0,0,0,0,13.83,497,1002.9,1017.2
2,2023-11-20T00:01:00,0.8,西南西,1.4,西,6.2,95.1,0,0,0,0,0,0,1002.8,1017.1
3,2023-11-20T00:02:00,0.8,西南西,1.4,西,5.9,94.4,0,0,0,0,0,0,1002.8,1017.1
4,2023-11-20T00:03:00,0.7,西南西,1.4,西,5.8,93.6,0,0,0,0,0,0,1002.8,1017.1
5,2023-11-20T00:04:00,0.7,西南西,1.4,西,5.9,93.5,0,0,0,0,0,0,1002.8,1017.1
6,2023-11-20T00:05:00,0.7,西南西,1.8,西,6.1,93.9,0,0,0,0,0,0,1002.9,1017.2
7,2023-11-20T00:06:00,0.6,西,1.8,西,6.1,94,0,0,0,0,0,0,1002.9,1017.2
8,2023-11-20T00:07:00,0.6,西北西,1.8,西,6,93.8,0,0,0,0,0,0,1002.8,1017.1
9,2023-11-20T00:08:00,0.5,北西,1.8,西,6.1,93.5,0,0,0,0,0,0,1002.8,1017.1
10,2023-11-20T00:09:00,0.5,北北西,1.8,西,6.1,93.7,0,0,0,0,0,0,1002.9,1017.2
11,2023-11-20T00:10:00,0.5,北北西,1.8,西,6.3,93.7,0,0,0,0,0,0,1002.9,1017.2
12,2023-11-20T00:11:00,0.6,北北西,1.8,西,6.1,93.5,0,0,0,0,0,0,1002.9,1017.2
13,2023-11-20T00:12:00,0.6,北北西,1.8,西,5.8,92.7,0,0,0,0,0,0,1002.8,1017.1
14,2023-11-20T00:13:00,0.6,北西,1.8,西,5.9,92.5,0,0,0,0,0,0,1002.8,1017.1
15,2023-11-20T00:14:00,0.5,北西,1.8,西,5.9,92.8,0,0,0,0,0,0,1002.9,1017.2
16,2023-11-20T00:15:00,0.5,北西,1.6,西北西,5.7,92.4,0,0,0,0,0,0,1002.8,1017.1
17,2023-11-20T00:16:00,0.5,西北西,1.6,西北西,5.8,92.2,0,0,0,0,0,0,1002.8,1017.1
18,2023-11-20T00:17:00,0.5,西北西,1.6,西北西,5.8,92.6,0,0,0,0,0,0,1002.8,1017.1
19,2023-11-20T00:18:00,0.4,西,1.6,西北西,5.9,92.7,0,0,0,0,0,0,1002.8,1017.1
20,2023-11-20T00:19:00,0.4,西,1.6,西北西,6,93,0,0,0,0,0,0,1002.8,1017.1
21,2023-11-20T00:20:00,0.4,西北西,1.6,西北西,6,93.2,0,0,0,0,0,0,1002.7,1017
22,2023-11-20T00:21:00,0.2,静穏,1.3,西南西,6.2,93.2,0,0,0,0,0,0,1002.6,1016.9
23,2023-11-20T00:22:00,0.2,静穏,1,北北東,6.2,93.2,0,0,0,0,0,0,1002.6,1016.9
24,2023-11-20T00:23:00,0.2,静穏,1,北北東,6,93.3,0,0,0,0,0,0,1002.7,1017
25,2023-11-20T00:24:00,0.2,静穏,1,北北東,6,92.7,0,0,0,0,0,0,1002.7,1017
26,2023-11-20T00:25:00,0.2,静穏,1,北北東,6,92.9,0,0,0,0,0,0,1002.7,1017
27,2023-11-20T00:26:00,0.2,静穏,1,北北東,6,92.7,0,0,0,0,0,0,1002.6,1016.9
28,2023-11-20T00:27:00,0.2,静穏,1,北北東,5.9,92.7,0,0,0,0,0,0,1002.6,1016.9
29,2023-11-20T00:28:00,0.2,静穏,1,北北東,5.8,92.2,0,0,0,0,0,0,1002.7,1017
30,2023-11-20T00:29:00,0.3,北,1,北北東,5.9,92.4,0,0,0,0,0,0,1002.7,1017
31,2023-11-20T00:30:00,0.3,北,1,北北東,5.9,92.6,0,0,0,0,0,0,1002.7,1017
32,2023-11-20T00:31:00,0.4,北西,1.4,南西,5.9,92.7,0,0,0,0,0,0,1002.7,1017
33,2023-11-20T00:32:00,0.3,西南西,1.4,南西,6,92.8,0,0,0,0,0,0,1002.6,1016.9
34,2023-11-20T00:33:00,0.3,西南西,1.4,南西,6,93,0,0,0,0,0,0,1002.7,1017
35,2023-11-20T00:34:00,0.4,北西,1.4,南西,5.9,92.7,0,0,0,0,0,0,1002.7,1017
36,2023-11-20T00:35:00,0.4,北,1.4,南西,6,92.8,0,0,0,0,0,0,1002.7,1017
37,2023-11-20T00:36:00,0.4,北北東,1.4,南西,6.1,93.1,0,0,0,0,0,0,1002.7,1017
38,2023-11-20T00:37:00,0.4,北東,1.4,南西,6,93.1,0,0,0,0,0,0,1002.8,1017.1
39,2023-11-20T00:38:00,0.5,北,1.4,南西,6.1,92.8,0,0,0,0,0,0,1002.8,1017.1
40,2023-11-20T00:39:00,0.4,北北東,1.4,南西,5.9,93.1,0,0,0,0,0,0,1002.8,1017.1
41,2023-11-20T00:40:00,0.4,北北東,1.4,南西,5.7,92.2,0,0,0,0,0,0,1002.8,1017.1
42,2023-11-20T00:41:00,0.4,北北東,1.3,南西,5.6,91.9,0,0,0,0,0,0,1002.8,1017.1
43,2023-11-20T00:42:00,0.4,北北東,0.8,北,5.8,92.4,0,0,0,0,0,0,1002.7,1017
44,2023-11-20T00:43:00,0.4,北,0.8,北,5.8,92.8,0,0,0,0,0,0,1002.7,1017
45,2023-11-20T00:44:00,0.3,北,0.8,北,5.8,92.7,0,0,0,0,0,0,1002.7,1017
46,2023-11-20T00:45:00,0.3,北,0.8,北,5.9,92.9,0,0,0,0,0,0,1002.8,1017.1
47,2023-11-20T00:46:00,0.3,北,1,西,5.8,93,0,0,0,0,0,0,1002.8,1017.1
48,2023-11-20T00:47:00,0.4,北,1.7,西,5.8,92.9,0,0,0,0,0,0,1002.8,1017.1
49,2023-11-20T00:48:00,0.3,北,1.7,西,5.8,93.1,0,0,0,0,0,0,1002.8,1017.1
50,2023-11-20T00:49:00,0.3,北,1.7,西,5.6,92.9,0,0,0,0,0,0,1002.8,1017.1
51,2023-11-20T00:50:00,0.4,北,1.7,西,5.6,92.8,0,0,0,0,0,0,1002.8,1017.1
52,2023-11-20T00:51:00,0.4,北,1.7,西,5.8,93.2,0,0,0,0,0,0,1002.8,1017.1
53,2023-11-20T00:52:00,0.4,北北東,1.7,西,6,93.7,0,0,0,0,0,0,1002.9,1017.2
54,2023-11-20T00:53:00,0.4,北北東,1.7,西,6.2,94.1,0,0,0,0,0,0,1002.9,1017.2
55,2023-11-20T00:54:00,0.4,北北東,1.7,西,6,93.8,0,0,0,0,0,0,1002.9,1017.2
56,2023-11-20T00:55:00,0.4,北北西,1.7,西,6,93.8,0,0,0,0,0,0,1002.9,1017.2
57,2023-11-20T00:56:00,0.4,北北西,1.7,西,6,93.4,0,0,0,0,0,0,1002.9,1017.2
58,2023-11-20T00:57:00,0.3,北,1.5,東北東,6,93.4,0,0,0,0,0,0,1002.9,1017.2
59,2023-11-20T00:58:00,0.3,北北東,1.5,東北東,6.1,93.3,0,0,0,0,0,0,1003,1017.3
60,2023-11-20T00:59:00,0.3,北北東,1.5,東北東,6.1,93.6,0,0,0,0,0,0,1003,1017.3
61,2023-11-20T01:00:00,0.3,北,1.3,西,5.9,93.3,0,0,0,0,0,0,1003,1017.3
62,2023-11-20T01:01:00,0.3,北北西,1.3,西,6,93.1,0,0,0,0,0,0,1003,1017.3
63,2023-11-20T01:02:00,0.3,北西,1.3,西,5.9,93.2,0,0,0,0,0,0,1003,1017.3
64,2023-11-20T01:03:00,0.3,北北西,1.3,西,5.9,93.2,0,0,0,0,0,0,1002.9,1017.2
65,2023-11-20T01:04:00,0.3,北,1.3,西,5.8,92.9,0,0,0,0,0,0,1003,1017.3
66,2023-11-20T01:05:00,0.4,北,1.3,西,6,92.9,0,0,0,0,0,0,1003,1017.3
67,2023-11-20T01:06:00,0.5,北東,1.3,西,6.1,93.3,0,0,0,0,0,0,1002.9,1017.2
68,2023-11-20T01:07:00,0.5,南南東,1.4,南,5.9,93.1,0,0,0,0,0,0,1002.9,1017.2
69,2023-11-20T01:08:00,0.5,南,1.4,南,5.9,92.9,0,0,0,0,0,0,1002.7,1017
70,2023-11-20T01:09:00,0.5,南,1.4,南,5.9,93,0,0,0,0,0,0,1002.8,1017.1
71,2023-11-20T01:10:00,0.6,南,2.1,南南西,5.9,93.2,0,0,0,0,0,0,1002.8,1017.1
72,2023-11-20T01:11:00,0.7,南,2.3,南南西,6,93.4,0,0,0,0,0,0,1002.7,1017
73,2023-11-20T01:12:00,0.8,南南東,2.3,南南西,5.9,93.2,0,0,0,0,0,0,1002.7,1017
74,2023-11-20T01:13:00,0.8,南,2.3,南南西,5.9,93.1,0,0,0,0,0,0,1002.8,1017.1
75,2023-11-20T01:14:00,0.9,南,2.3,南南西,6.3,93.7,0,0,0,0,0,0,1002.8,1017.1
76,2023-11-20T01:15:00,1,南南西,2.7,西,6,93.8,0,0,0,0,0,0,1002.8,1017.1
77,2023-11-20T01:16:00,1.1,南南西,2.8,西,5.8,93,0,0,0,0,0,0,1002.8,1017.1
78,2023-11-20T01:17:00,1.2,南西,2.8,西,6.1,93.2,0,0,0,0,0,0,1002.8,1017.1
79,2023-11-20T01:18:00,1.1,南西,2.8,西,6.2,93.9,0,0,0,0,0,0,1002.8,1017.1
80,2023-11-20T01:19:00,1.1,西南西,2.8,西,6.2,93.9,0,0,0,0,0,0,1002.9,1017.2
81,2023-11-20T01:20:00,1.1,西南西,2.8,西,5.9,93.3,0,0,0,0,0,0,1003,1017.3
82,2023-11-20T01:21:00,1.2,西,4.3,西,5.8,92.8,0,0,0,0,0,0,1003,1017.3
83,2023-11-20T01:22:00,1.3,西,4.3,西,5.9,92.6,0,0,0,0,0,0,1003,1017.3
84,2023-11-20T01:23:00,1.4,西,4.3,西,6,93.2,0,0,0,0,0,0,1002.9,1017.2
85,2023-11-20T01:24:00,1.3,西,4.3,西,6.6,94,0,0,0,0,0,0,1002.9,1017.2
86,2023-11-20T01:25:00,1.2,西,4.3,西,6.6,95,0,0,0,0,0,0,1002.9,1017.2
87,2023-11-20T01:26:00,1.1,西,4.3,西,6.4,94,0,0,0,0,0,0,1002.9,1017.2
88,2023-11-20T01:27:00,1,西,4.3,西,6.2,93.5,0,0,0,0,0,0,1002.9,1017.2
89,2023-11-20T01:28:00,1,西,4.3,西,6.2,92.8,0,0,0,0,0,0,1002.9,1017.2
90,2023-11-20T01:29:00,0.9,西,4.3,西,6.3,92.8,0,0,0,0,0,0,1002.9,1017.2
91,2023-11-20T01:30:00,0.9,西,4.3,西,6.4,92.9,0,0,0,0,0,0,1002.9,1017.2
92,2023-11-20T01:31:00,0.6,西,3.6,西,6.5,93,0,0,0,0,0,0,1002.9,1017.2
93,2023-11-20T01:32:00,0.4,西,1.8,南南東,6.5,93,0,0,0,0,0,0,1002.9,1017.2
94,2023-11-20T01:33:00,0.4,西南西,1.8,南南東,6.4,92.8,0,0,0,0,0,0,1002.9,1017.2
95,2023-11-20T01:34:00,0.3,西,1.1,西南西,6.3,92.2,0,0,0,0,0,0,1002.8,1017.1
96,2023-11-20T01:35:00,0.2,静穏,0.9,南西,6.3,92,0,0,0,0,0,0,1002.8,1017.1
97,2023-11-20T01:36:00,0.2,静穏,0.7,南南西,6.3,91.7,0,0,0,0,0,0,1002.7,1017
98,2023-11-20T01:37:00,0.3,南南東,1.4,南南西,6.2,91.6,0,0,0,0,0,0,1002.7,1017
99,2023-11-20T01:38:00,0.3,南,1.4,南南西,6.2,91.5,0,0,0,0,0,0,1002.8,1017.1
100,2023-11-20T01:39:00,0.4,南,1.8,南南西,6.2,91.9,0,0,0,0,0,0,1002.7,1017
101,2023-11-20T01:40:00,0.5,南,2.2,南,6.1,91.5,0,0,0,0,0,0,1002.7,1017
102,2023-11-20T01:41:00,0.6,南,2.2,南,6.1,91.4,0,0,0,0,0,0,1002.6,1016.9
103,2023-11-20T01:42:00,0.7,南,2.3,西南西,6.1,91.8,0,0,0,0,0,0,1002.7,1017
104,2023-11-20T01:43:00,0.8,南南西,2.3,西南西,6,91.9,0,0,0,0,0,0,1002.7,1017
105,2023-11-20T01:44:00,0.8,南南西,2.3,西南西,5.9,91.7,0,0,0,0,0,0,1002.7,1017
106,2023-11-20T01:45:00,0.9,南南西,2.3,西南西,6.3,92.5,0,0,0,0,0,0,1002.7,1017
107,2023-11-20T01:46:00,1,南南西,2.3,西南西,6.5,93.3,0,0,0,0,0,0,1002.6,1016.9
108,2023-11-20T01:47:00,1.1,南南西,2.5,南南西,6.6,93.6,0,0,0,0,0,0,1002.6,1016.9
109,2023-11-20T01:48:00,1.3,南南西,3.1,南,6.8,93.5,0,0,0,0,0,0,1002.6,1016.9
110,2023-11-20T01:49:00,1.5,南南西,3.1,南,6.9,93.7,0,0,0,0,0,0,1002.6,1016.9
111,2023-11-20T01:50:00,1.5,南南西,3.1,南,7,93.5,0,0,0,0,0,0,1002.6,1016.9
112,2023-11-20T01:51:00,1.5,南南西,3.1,南,6.6,91.9,0,0,0,0,0,0,1002.7,1017
113,2023-11-20T01:52:00,1.5,南南西,3.1,南,6.2,90.3,0,0,0,0,0,0,1002.6,1016.9
114,2023-11-20T01:53:00,1.6,南南西,3.1,南,6.2,89.8,0,0,0,0,0,0,1002.7,1017
115,2023-11-20T01:54:00,1.7,南西,3.1,南,6.4,90.5,0,0,0,0,0,0,1002.6,1016.9
116,2023-11-20T01:55:00,1.8,南西,3.1,南,6.6,91.2,0,0,0,0,0,0,1002.7,1017
117,2023-11-20T01:56:00,1.9,南西,3.1,南,6.8,92.2,0,0,0,0,0,0,1002.6,1016.9
118,2023-11-20T01:57:00,2,南西,3.7,南南西,7.2,92.7,0,0,0,0,0,0,1002.6,1016.8
119,2023-11-20T01:58:00,2,南西,4.1,南南西,7.5,92.8,0,0,0,0,0,0,1002.6,1016.8
120,2023-11-20T01:59:00,1.9,南西,4.1,南南西,7.3,92,0,0,0,0,0,0,1002.6,1016.8
121,2023-11-20T02:00:00,1.9,南西,4.1,南南西,7.4,90.9,0,0,0,0,0,0,1002.6,1016.8
122,2023-11-20T02:01:00,2,南西,4.1,南南西,7.5,90.1,0,0,0,0,0,0,1002.6,1016.8
123,2023-11-20T02:02:00,2,南西,4.1,南南西,6.9,88.3,0,0,0,0,0,0,1002.6,1016.9
124,2023-11-20T02:03:00,1.9,南南西,4.1,南南西,7.2,87.9,0,0,0,0,0,0,1002.5,1016.7
125,2023-11-20T02:04:00,2.1,南南西,4.1,南南西,7.4,87.7,0,0,0,0,0,0,1002.5,1016.7
126,2023-11-20T02:05:00,2.1,南南西,4.1,南南西,7.3,87.7,0,0,0,0,0,0,1002.5,1016.7
127,2023-11-20T02:06:00,2.1,南南西,4.1,南南西,7.4,87,0,0,0,0,0,0,1002.5,1016.7
128,2023-11-20T02:07:00,2.1,南南西,4.1,南南西,7.8,87.5,0,0,0,0,0,0,1002.4,1016.6
129,2023-11-20T02:08:00,2.2,南南西,4,南,7.8,87,0,0,0,0,0,0,1002.4,1016.6
130,2023-11-20T02:09:00,2.2,南南西,4,南,7.9,86.1,0,0,0,0,0,0,1002.4,1016.6
131,2023-11-20T02:10:00,2.3,南西,4,南,7.9,85.2,0,0,0,0,0,0,1002.5,1016.7
132,2023-11-20T02:11:00,2.3,南南西,4,南,8.1,84.6,0,0,0,0,0,0,1002.5,1016.7
133,2023-11-20T02:12:00,2.5,南南西,4.8,南,8.6,84.6,0,0,0,0,0,0,1002.4,1016.6
134,2023-11-20T02:13:00,2.7,南南西,4.8,南,8.8,83.8,0,0,0,0,0,0,1002.4,1016.6
135,2023-11-20T02:14:00,2.8,南南西,5.7,南,8.9,82,0,0,0,0,0,0,1002.4,1016.6
136,2023-11-20T02:15:00,3,南南西,5.7,南,9,80.5,0,0,0,0,0,0,1002.4,1016.5
137,2023-11-20T02:16:00,3.3,南南西,6.1,南,9.1,79,0,0,0,0,0,0,1002.4,1016.5
138,2023-11-20T02:17:00,3.4,南南西,6.1,南,9.2,78.1,0,0,0,0,0,0,1002.4,1016.5
139,2023-11-20T02:18:00,3.5,南南西,6.1,南,9.2,77,0,0,0,0,0,0,1002.3,1016.4
140,2023-11-20T02:19:00,3.6,南南西,6.1,南,9.2,76.1,0,0,0,0,0,0,1002.2,1016.3
141,2023-11-20T02:20:00,3.9,南南西,6.1,南,9.2,75.6,0,0,0,0,0,0,1002.2,1016.3
142,2023-11-20T02:21:00,4.2,南南西,6.2,南,9.2,75,0,0,0,0,0,0,1002.2,1016.3
143,2023-11-20T02:22:00,4.2,南南西,6.2,南,9.2,74.8,0,0,0,0,0,0,1002.3,1016.4
144,2023-11-20T02:23:00,4.3,南,6.2,南,9.1,74.5,0,0,0,0,0,0,1002.2,1016.3
145,2023-11-20T02:24:00,4.5,南,6.8,南,9.2,74.5,0,0,0,0,0,0,1002.2,1016.3
146,2023-11-20T02:25:00,4.6,南,6.8,南,9.2,74.5,0,0,0,0,0,0,1002.1,1016.2
147,2023-11-20T02:26:00,4.5,南,6.8,南,9.1,74.3,0,0,0,0,0,0,1002,1016.1
148,2023-11-20T02:27:00,4.6,南,6.8,南,9.1,74.3,0,0,0,0,0,0,1002,1016.1
149,2023-11-20T02:28:00,4.7,南,6.8,南,9.1,74.3,0,0,0,0,0,0,1002.1,1016.2
150,2023-11-20T02:29:00,4.7,南,6.8,南,9.1,74.4,0,0,0,0,0,0,1002.1,1016.2
151,2023-11-20T02:30:00,4.7,南,6.8,南,9.2,74.5,0,0,0,0,0,0,1002.2,1016.3
152,2023-11-20T02:31:00,4.5,南,6.8,南,9.3,74.5,0,0,0,0,0,0,1002.2,1016.3
153,2023-11-20T02:32:00,4.5,南,6.8,南,9.4,74.4,0,0,0,0,0,0,1002.3,1016.4
154,2023-11-20T02:33:00,4.4,南,6.8,南,9.3,73.9,0,0,0,0,0,0,1002.2,1016.3
155,2023-11-20T02:34:00,4.1,南,6.2,南南西,9.3,73.6,0,0,0,0,0,0,1002.3,1016.4
156,2023-11-20T02:35:00,4,南,6.1,南,9.3,73.3,0,0,0,0,0,0,1002.3,1016.4
157,2023-11-20T02:36:00,3.9,南,6.1,南,9.2,73.4,0,0,0,0,0,0,1002.3,1016.4
158,2023-11-20T02:37:00,3.7,南,6.1,南,9.1,73.4,0,0,0,0,0,0,1002.2,1016.3
159,2023-11-20T02:38:00,3.3,南,6.1,南,9,73.5,0,0,0,0,0,0,1002.1,1016.2
160,2023-11-20T02:39:00,3.1,南,5,南,9,73.8,0,0,0,0,0,0,1002.1,1016.2
161,2023-11-20T02:40:00,2.8,南,5,南,8.9,74.2,0,0,0,0,0,0,1002,1016.1
162,2023-11-20T02:41:00,2.7,南,5,南,8.9,74.5,0,0,0,0,0,0,1002.1,1016.2
163,2023-11-20T02:42:00,2.6,南,5.1,南,8.9,74.9,0,0,0,0,0,0,1002.1,1016.2
164,2023-11-20T02:43:00,2.6,南,5.1,南,9,75.2,0,0,0,0,0,0,1002.2,1016.3
165,2023-11-20T02:44:00,2.7,南,5.1,南,9.1,75.4,0,0,0,0,0,0,1002.2,1016.3
166,2023-11-20T02:45:00,2.7,南,5.1,南,9.1,75.1,0,0,0,0,0,0,1002.2,1016.3
167,2023-11-20T02:46:00,2.8,南,5.1,南,9,74.7,0,0,0,0,0,0,1002.2,1016.3
168,2023-11-20T02:47:00,2.9,南,5.1,南,8.9,74.8,0,0,0,0,0,0,1002.2,1016.4
169,2023-11-20T02:48:00,3,南,5.1,南,8.8,74.8,0,0,0,0,0,0,1002.1,1016.3
170,2023-11-20T02:49:00,3.1,南,5.1,南,8.8,74.9,0,0,0,0,0,0,1002.1,1016.3
171,2023-11-20T02:50:00,3.4,南,5.1,南,8.8,75.4,0,0,0,0,0,0,1002.2,1016.4
172,2023-11-20T02:51:00,3.5,南,5.1,南,9,75.8,0,0,0,0,0,0,1002.2,1016.3
173,2023-11-20T02:52:00,3.5,南,4.8,南,9.1,75.9,0,0,0,0,0,0,1002.2,1016.3
174,2023-11-20T02:53:00,3.5,南,4.8,南,9.1,75.4,0,0,0,0,0,0,1002.2,1016.3
175,2023-11-20T02:54:00,3.4,南,5.2,南,9.1,75.2,0,0,0,0,0,0,1002.1,1016.2
176,2023-11-20T02:55:00,3.5,南,5.2,南,9.1,74.9,0,0,0,0,0,0,1002,1016.1
177,2023-11-20T02:56:00,3.5,南,5.2,南,9.2,74.8,0,0,0,0,0,0,1002,1016.1
178,2023-11-20T02:57:00,3.6,南,5.2,南,9.2,74.8,0,0,0,0,0,0,1002.1,1016.2
179,2023-11-20T02:58:00,3.7,南,5.3,南,9.4,74.7,0,0,0,0,0,0,1002.1,1016.2
180,2023-11-20T02:59:00,3.7,南,5.3,南,9.5,74.6,0,0,0,0,0,0,1002.1,1016.2
181,2023-11-20T03:00:00,3.7,南,5.3,南,9.4,73.9,0,0,0,0,0,0,1002,1016.1
182,2023-11-20T03:01:00,3.7,南,5.3,南,9.4,73.6,0,0,0,0,0,0,1002,1016.1
183,2023-11-20T03:02:00,3.8,南,5.5,南,9.4,73.4,0,0,0,0,0,0,1002,1016.1
184,2023-11-20T03:03:00,3.8,南,5.5,南,9.3,73.4,0,0,0,0,0,0,1002.1,1016.2
185,2023-11-20T03:04:00,3.9,南,5.5,南,9.3,73.4,0,0,0,0,0,0,1002.1,1016.2
186,2023-11-20T03:05:00,4,南,6.7,南南西,9.6,73.9,0,0,0,0,0,0,1002.2,1016.3
187,2023-11-20T03:06:00,3.9,南,6.7,南南西,9.6,73.7,0,0,0,0,0,0,1002.2,1016.3
188,2023-11-20T03:07:00,4,南,6.7,南南西,9.8,73.2,0,0,0,0,0,0,1002.1,1016.2
189,2023-11-20T03:08:00,4.1,南,6.7,南南西,9.8,72.7,0,0,0,0,0,0,1002,1016.1
190,2023-11-20T03:09:00,4.1,南,6.7,南南西,9.7,72.2,0,0,0,0,0,0,1002.1,1016.2
191,2023-11-20T03:10:00,4.3,南,6.7,南南西,9.7,71.6,0,0,0,0,0,0,1002.1,1016.2
192,2023-11-20T03:11:00,4.5,南,6.7,南南西,9.8,71.8,0,0,0,0,0,0,1002.1,1016.2
193,2023-11-20T03:12:00,4.5,南,6.7,南南西,9.6,71.5,0,0,0,0,0,0,1002.1,1016.2
194,2023-11-20T03:13:00,4.7,南,7.2,南,9.7,71.7,0,0,0,0,0,0,1002,1016.1
195,2023-11-20T03:14:00,4.7,南,7.2,南,9.6,71.8,0,0,0,0,0,0,1001.9,1016
196,2023-11-20T03:15:00,4.8,南,7.8,南,9.7,72.2,0,0,0,0,0,0,1001.9,1016
197,2023-11-20T03:16:00,4.9,南,7.8,南,9.7,72.2,0,0,0,0,0,0,1002,1016.1
198,2023-11-20T03:17:00,5,南,7.8,南,9.6,71.8,0,0,0,0,0,0,1002,1016.1
199,2023-11-20T03:18:00,5,南,7.8,南,9.9,72.2,0,0,0,0,0,0,1002,1016.1
200,2023-11-20T03:19:00,5.1,南,7.8,南,10,72,0,0,0,0,0,0,1001.9,1016
201,2023-11-20T03:20:00,5.1,南,7.8,南,9.9,71.3,0,0,0,0,0,0,1001.9,1016
202,2023-11-20T03:21:00,5.2,南,7.8,南,10.1,71.2,0,0,0,0,0,0,1001.9,1016
203,2023-11-20T03:22:00,5.4,南,7.8,南,10.2,71,0,0,0,0,0,0,1002,1016.1
204,2023-11-20T03:23:00,5.4,南,7.8,南,10.2,70.5,0,0,0,0,0,0,1002,1016.1
205,2023-11-20T03:24:00,5.4,南,7.8,南,10.3,70.3,0,0,0,0,0,0,1001.9,1016
206,2023-11-20T03:25:00,5.3,南,7.7,南,10.3,70.1,0,0,0,0,0,0,1001.9,1016
207,2023-11-20T03:26:00,5.4,南,7.7,南,10.4,69.8,0,0,0,0,0,0,1001.9,1016
208,2023-11-20T03:27:00,5.4,南,7.7,南,10.3,69.6,0,0,0,0,0,0,1002,1016.1
209,2023-11-20T03:28:00,5.4,南,7.7,南,10.3,69.3,0,0,0,0,0,0,1002,1016.1
210,2023-11-20T03:29:00,5.3,南,7.7,南,10.3,69.3,0,0,0,0,0,0,1002,1016.1
211,2023-11-20T03:30:00,5.2,南,7.7,南,10.3,69.4,0,0,0,0,0,0,1002,1016.1
212,2023-11-20T03:31:00,5.3,南,9.2,南南西,10.4,69.4,0,0,0,0,0,0,1001.9,1016
213,2023-11-20T03:32:00,5.3,南,9.2,南南西,10.4,69.4,0,0,0,0,0,0,1001.9,1016
214,2023-11-20T03:33:00,5.3,南,9.2,南南西,10.4,69,0,0,0,0,0,0,1001.9,1016
215,2023-11-20T03:34:00,5.4,南,9.2,南南西,10.2,68.9,0,0,0,0,0,0,1001.9,1016
216,2023-11-20T03:35:00,5.4,南,9.2,南南西,10.2,69.2,0,0,0,0,0,0,1001.8,1015.9
217,2023-11-20T03:36:00,5.5,南,9.2,南南西,10.2,69.6,0,0,0,0,0,0,1001.8,1015.9
218,2023-11-20T03:37:00,5.6,南,9.2,南南西,10.4,69.8,0,0,0,0,0,0,1001.7,1015.8
219,2023-11-20T03:38:00,5.8,南,9.2,南南西,10.4,69.5,0,0,0,0,0,0,1001.8,1015.9
220,2023-11-20T03:39:00,5.9,南,9.2,南南西,10.3,69.1,0,0,0,0,0,0,1001.9,1016
221,2023-11-20T03:40:00,5.8,南,9.2,南南西,10.3,69,0,0,0,0,0,0,1001.9,1016
222,2023-11-20T03:41:00,5.7,南,8.7,南,10.4,69.2,0,0,0,0,0,0,1002,1016.1
223,2023-11-20T03:42:00,5.6,南,8.7,南,10.4,69.2,0,0,0,0,0,0,1002,1016.1
224,2023-11-20T03:43:00,5.5,南,8.7,南,10.4,69.1,0,0,0,0,0,0,1002.1,1016.2
225,2023-11-20T03:44:00,5.4,南,8.7,南,10.5,69.1,0,0,0,0,0,0,1002.1,1016.2
226,2023-11-20T03:45:00,5.5,南,8.7,南,10.6,69.1,0,0,0,0,0,0,1002.2,1016.3
227,2023-11-20T03:46:00,5.2,南,8.7,南,10.5,68.5,0,0,0,0,0,0,1002.3,1016.4
228,2023-11-20T03:47:00,4.9,南,7.7,南,10.5,68.3,0,0,0,0,0,0,1002.3,1016.4
229,2023-11-20T03:48:00,4.6,南,7.5,南南西,10.4,68.2,0,0,0,0,0,0,1002.2,1016.3
230,2023-11-20T03:49:00,4.4,南,7.5,南南西,10.2,68.3,0,0,0,0,0,0,1002.2,1016.3
231,2023-11-20T03:50:00,4.3,南,7.5,南南西,10.2,69,0,0,0,0,0,0,1002.3,1016.4
232,2023-11-20T03:51:00,4.2,南,7.5,南南西,10.1,69,0,0,0,0,0,0,1002.3,1016.4
233,2023-11-20T03:52:00,3.9,南,7.5,南南西,10.1,69.5,0,0,0,0,0,0,1002.3,1016.4
234,2023-11-20T03:53:00,3.7,南,7.5,南南西,10.2,69.7,0,0,0,0,0,0,1002.2,1016.3
235,2023-11-20T03:54:00,3.5,南,7.5,南南西,10.1,69.8,0,0,0,0,0,0,1002.2,1016.3
236,2023-11-20T03:55:00,3.2,南,5.8,南,10.2,69.8,0,0,0,0,0,0,1002.2,1016.3
237,2023-11-20T03:56:00,3.2,南,5.8,南,10.3,70.1,0,0,0,0,0,0,1002.2,1016.3
238,2023-11-20T03:57:00,3,南,5.8,南,10.2,69.8,0,0,0,0,0,0,1002.2,1016.3
239,2023-11-20T03:58:00,2.9,南,5.6,南,10.1,69.6,0,0,0,0,0,0,1002.2,1016.3
240,2023-11-20T03:59:00,3,南,5.6,南,10,69.9,0,0,0,0,0,0,1002.1,1016.2
241,2023-11-20T04:00:00,,"",,"",,,,,,,,,,
242,2023-11-20T04:01:00,3,南,5.6,南,9.9,70.4,0,0,0,0,0,0,1002.1,1016.2
243,2023-11-20T04:02:00,3.2,南,5.6,南,10,70.8,0,0,0,0,0,0,1002.2,1016.3
244,2023-11-20T04:03:00,3.3,南,5.6,南,9.8,70.9,0,0,0,0,0,0,1002.2,1016.3
245,2023-11-20T04:04:00,3.4,南,5.4,南南西,9.9,71.1,0,0,0,0,0,0,1002.1,1016.2
246,2023-11-20T04:05:00,3.3,南,5.4,南南西,9.8,71.3,0,0,0,0,0,0,1002.2,1016.3
247,2023-11-20T04:06:00,3.4,南南西,5.4,南南西,9.8,71.4,0,0,0,0,0,0,1002.1,1016.2
248,2023-11-20T04:07:00,3.5,南,5.4,南南西,9.8,71.5,0,0,0,0,0,0,1002.1,1016.2
249,2023-11-20T04:08:00,3.5,南,5.4,南南西,9.7,71.7,0,0,0,0,0,0,1002,1016.1
250,2023-11-20T04:09:00,3.6,南,5.4,南南西,9.7,71.9,0,0,0,0,0,0,1002.1,1016.2
251,2023-11-20T04:10:00,3.6,南,5.4,南南西,9.6,72.2,0,0,0,0,0,0,1002,1016.1
252,2023-11-20T04:11:00,3.6,南,5.6,南,9.6,72.4,0,0,0,0,0,0,1001.9,1016
253,2023-11-20T04:12:00,3.6,南,5.8,南,9.5,72.6,0,0,0,0,0,0,1001.9,1016
254,2023-11-20T04:13:00,3.6,南南西,5.8,南,9.4,72.8,0,0,0,0,0,0,1001.8,1015.9
255,2023-11-20T04:14:00,3.7,南南西,5.8,南,9.4,73.3,0,0,0,0,0,0,1001.9,1016
256,2023-11-20T04:15:00,3.9,南南西,6,南南西,9.5,73.8,0,0,0,0,0,0,1002,1016.1
257,2023-11-20T04:16:00,3.9,南南西,6,南南西,9.5,74,0,0,0,0,0,0,1002,1016.1
258,2023-11-20T04:17:00,3.9,南南西,6,南南西,9.5,74,0,0,0,0,0,0,1002.1,1016.2
259,2023-11-20T04:18:00,3.9,南南西,6,南南西,9.5,74,0,0,0,0,0,0,1002.1,1016.2
260,2023-11-20T04:19:00,3.9,南南西,6,南南西,9.4,73.9,0,0,0,0,0,0,1002.1,1016.2
261,2023-11-20T04:20:00,3.9,南南西,6,南南西,9.4,74,0,0,0,0,0,0,1002.1,1016.2
262,2023-11-20T04:21:00,4,南南西,6,南南西,9.4,74.3,0,0,0,0,0,0,1002.1,1016.2
263,2023-11-20T04:22:00,4.1,南南西,6,南南西,9.5,74.7,0,0,0,0,0,0,1002.1,1016.2
264,2023-11-20T04:23:00,4.1,南南西,6,南南西,9.4,74.3,0,0,0,0,0,0,1002,1016.1
265,2023-11-20T04:24:00,4,南南西,6,南南西,9.4,74,0,0,0,0,0,0,1002,1016.1
266,2023-11-20T04:25:00,3.9,南南西,6,南,9.3,74.1,0,0,0,0,0,0,1002.1,1016.2
267,2023-11-20T04:26:00,4,南南西,6,南,9.3,74.4,0,0,0,0,0,0,1002.2,1016.3
268,2023-11-20T04:27:00,4,南南西,6,南,9.3,74.3,0,0,0,0,0,0,1002.1,1016.2
269,2023-11-20T04:28:00,3.9,南南西,6,南,9.2,74.6,0,0,0,0,0,0,1002.2,1016.3
270,2023-11-20T04:29:00,3.8,南南西,6,南,9.3,74.9,0,0,0,0,0,0,1002.2,1016.3
271,2023-11-20T04:30:00,3.7,南南西,6,南,9.4,75.3,0,0,0,0,0,0,1002.2,1016.3
272,2023-11-20T04:31:00,3.5,南南西,5.7,南西,9.5,75,0,0,0,0,0,0,1002.3,1016.4
273,2023-11-20T04:32:00,3.3,南南西,5.7,南西,9.4,74.6,0,0,0,0,0,0,1002.3,1016.4
274,2023-11-20T04:33:00,3.2,南南西,5.7,南西,9.2,74.2,0,0,0,0,0,0,1002.2,1016.3
275,2023-11-20T04:34:00,3.1,南南西,5.7,南西,9,74.3,0,0,0,0,0,0,1002.2,1016.3
276,2023-11-20T04:35:00,2.9,南南西,5.7,南西,8.8,74.2,0,0,0,0,0,0,1002.1,1016.3
277,2023-11-20T04:36:00,2.7,南南西,4.9,南西,9.1,75.7,0,0,0,0,0,0,1002.1,1016.2
278,2023-11-20T04:37:00,2.5,南南西,4.9,南西,9.2,76.2,0,0,0,0,0,0,1002.1,1016.2
279,2023-11-20T04:38:00,2.5,南南西,4.9,南西,9,75.8,0,0,0,0,0,0,1002.1,1016.2
280,2023-11-20T04:39:00,2.3,南西,4.9,南西,8.9,75.6,0,0,0,0,0,0,1002.1,1016.2
281,2023-11-20T04:40:00,2.2,南西,4.8,南南西,8.6,75.5,0,0,0,0,0,0,1002,1016.2
282,2023-11-20T04:41:00,2,南西,3.8,南南西,8.5,75.8,0,0,0,0,0,0,1002,1016.2
283,2023-11-20T04:42:00,1.9,南西,3.8,南南西,8.5,76.5,0,0,0,0,0,0,1002.1,1016.3
284,2023-11-20T04:43:00,1.9,南西,3.8,南南西,8.6,77.5,0,0,0,0,0,0,1002.1,1016.3
285,2023-11-20T04:44:00,1.9,南西,3.8,南南西,8.4,77.7,0,0,0,0,0,0,1002.2,1016.4
286,2023-11-20T04:45:00,1.9,西南西,3.8,南南西,8.1,77.2,0,0,0,0,0,0,1002.2,1016.4
287,2023-11-20T04:46:00,1.9,西南西,3.3,西,7.9,77.9,0,0,0,0,0,0,1002.2,1016.4
288,2023-11-20T04:47:00,2,西南西,3.4,西,7.9,78.8,0,0,0,0,0,0,1002.3,1016.5
289,2023-11-20T04:48:00,2.1,西南西,3.4,西,8,80.1,0,0,0,0,0,0,1002.3,1016.5
290,2023-11-20T04:49:00,2.2,西南西,3.5,西南西,7.8,80.3,0,0,0,0,0,0,1002.3,1016.5
291,2023-11-20T04:50:00,2.3,西南西,3.7,西,7.7,80.4,0,0,0,0,0,0,1002.3,1016.5
292,2023-11-20T04:51:00,2.3,西南西,3.7,西,7.8,81.5,0,0,0,0,0,0,1002.3,1016.5
293,2023-11-20T04:52:00,2.2,西南西,3.7,西,7.6,81.6,0,0,0,0,0,0,1002.3,1016.5
294,2023-11-20T04:53:00,2.2,西,3.7,西,7.5,81.7,0,0,0,0,0,0,1002.4,1016.6
295,2023-11-20T04:54:00,2.3,西,3.8,西,7.3,81.5,0,0,0,0,0,0,1002.4,1016.6
296,2023-11-20T04:55:00,2.3,西,3.8,西,7.3,82.2,0,0,0,0,0,0,1002.4,1016.6
297,2023-11-20T04:56:00,2.2,西,3.8,西,7.6,83.4,0,0,0,0,0,0,1002.4,1016.6
298,2023-11-20T04:57:00,2.1,西,3.8,西,7.7,84.5,0,0,0,0,0,0,1002.4,1016.6
299,2023-11-20T04:58:00,2,西,3.8,西,7.8,84.6,0,0,0,0,0,0,1002.5,1016.7
300,2023-11-20T04:59:00,1.8,西,3.8,西,7.7,84.2,0,0,0,0,0,0,1002.5,1016.7
301,2023-11-20T05:00:00,1.7,西,3.8,西,7.7,83.9,0,0,0,0,0,0,1002.5,1016.7
302,2023-11-20T05:01:00,1.7,西,3.8,西,7.8,83.9,0,0,0,0,0,0,1002.4,1016.6
303,2023-11-20T05:02:00,1.7,西,3.8,西,8,84,0,0,0,0,0,0,1002.4,1016.6
304,2023-11-20T05:03:00,1.6,西,3.8,西,8.2,84,0,0,0,0,0,0,1002.4,1016.6
305,2023-11-20T05:04:00,1.5,西南西,3.4,西北西,8.3,83.7,0,0,0,0,0,0,1002.4,1016.6
306,2023-11-20T05:05:00,1.4,西南西,3.4,西北西,8.3,83.2,0,0,0,0,0,0,1002.4,1016.6
307,2023-11-20T05:06:00,1.2,西南西,2.3,西北西,8.3,82.5,0,0,0,0,0,0,1002.5,1016.7
308,2023-11-20T05:07:00,1.1,南西,2,南南西,8.3,81.7,0,0,0,0,0,0,1002.4,1016.6
309,2023-11-20T05:08:00,1.2,南西,2.7,南,8.2,81.2,0,0,0,0,0,0,1002.4,1016.6
310,2023-11-20T05:09:00,1.3,南西,3.2,南南西,8.2,81,0,0,0,0,0,0,1002.4,1016.6
311,2023-11-20T05:10:00,1.4,南西,3.2,南南西,8.1,80.9,0,0,0,0,0,0,1002.4,1016.6
312,2023-11-20T05:11:00,1.4,南南西,3.2,南南西,8,80.8,0,0,0,0,0,0,1002.5,1016.7
313,2023-11-20T05:12:00,1.5,南南西,3.2,南南西,8,81,0,0,0,0,0,0,1002.5,1016.7
314,2023-11-20T05:13:00,1.6,南南西,3.2,南南西,7.9,81.3,0,0,0,0,0,0,1002.4,1016.6
315,2023-11-20T05:14:00,1.7,南南西,3.2,南南西,8,81.6,0,0,0,0,0,0,1002.4,1016.6
316,2023-11-20T05:15:00,1.7,南南西,3.2,南南西,7.9,81.8,0,0,0,0,0,0,1002.5,1016.7
317,2023-11-20T05:16:00,1.8,南南西,3.2,南南西,7.9,82,0,0,0,0,0,0,1002.5,1016.7
318,2023-11-20T05:17:00,1.8,南南西,3.2,南南西,7.8,82.2,0,0,0,0,0,0,1002.5,1016.7
319,2023-11-20T05:18:00,1.8,南南西,3.2,南南西,7.8,82.3,0,0,0,0,0,0,1002.5,1016.7
320,2023-11-20T05:19:00,1.7,南南西,3.2,南南西,7.8,82.6,0,0,0,0,0,0,1002.5,1016.7
321,2023-11-20T05:20:00,1.5,南南西,2.9,南南西,7.8,82.9,0,0,0,0,0,0,1002.5,1016.7
322,2023-11-20T05:21:00,1.4,南西,2.9,南南西,7.8,83.1,0,0,0,0,0,0,1002.5,1016.7
323,2023-11-20T05:22:00,1.3,南西,2.9,南南西,7.7,83.1,0,0,0,0,0,0,1002.5,1016.7
324,2023-11-20T05:23:00,1.2,南西,2.6,南南西,7.9,83.3,0,0,0,0,0,0,1002.5,1016.7
325,2023-11-20T05:24:00,1.2,南西,2.3,南南西,7.9,83.5,0,0,0,0,0,0,1002.5,1016.7
326,2023-11-20T05:25:00,1.2,南西,2.1,南南西,7.8,83.6,0,0,0,0,0,0,1002.4,1016.6
327,2023-11-20T05:26:00,1.1,南西,2.1,南南西,7.9,83.6,0,0,0,0,0,0,1002.5,1016.7
328,2023-11-20T05:27:00,1.1,南西,2,西南西,7.8,83.5,0,0,0,0,0,0,1002.5,1016.7
329,2023-11-20T05:28:00,1,南西,2.6,西,7.7,83.4,0,0,0,0,0,0,1002.6,1016.8
330,2023-11-20T05:29:00,1.2,南西,2.7,西,6.9,81.6,0,0,0,0,0,0,1002.6,1016.9
331,2023-11-20T05:30:00,1.3,南西,2.7,西,6.9,81.7,0,0,0,0,0,0,1002.6,1016.9
332,2023-11-20T05:31:00,1.4,南西,2.7,西,7,83.3,0,0,0,0,0,0,1002.6,1016.9
333,2023-11-20T05:32:00,1.3,西南西,2.7,西,7.2,84.8,0,0,0,0,0,0,1002.6,1016.8
334,2023-11-20T05:33:00,1.3,西南西,2.7,西,7.3,85.7,0,0,0,0,0,0,1002.6,1016.8
335,2023-11-20T05:34:00,1.2,西南西,2.7,西,7.3,86.2,0,0,0,0,0,0,1002.6,1016.8